Theta_e
334 336 336 335 336 336 336 336 335 335 336 337 337 337 337 337 336 335 336 337 337 337 336 336 335 335 335 335 334 332 333 333 334 334 335 335 336 336 336 335 334 335 335 334 333 336 332 332 334 334 333 334 332 330 330 331 329 327 324 322 321 320 320 321 315 312 309 307 309 309 309 311 313 309 308 308 308 308 308 306 306 306 304 305 305
333 334 335 335 335 335 336 335 335 334 335 336 336 336 337 337 336 335 336 336 337 337 336 336 336 336 335 334 333 331 333 332 331 332 334 335 335 335 335 335 334 334 334 333 333 332 331 332 332 331 332 331 332 331 331 334 328 328 323 317 318 317 316 318 317 313 310 304 303 305 307 309 312 308 308 308 308 309 307 306 305 304 304 304 305
332 334 335 334 334 335 335 335 335 335 335 336 336 336 336 336 335 336 336 336 336 337 336 336 335 336 335 333 333 332 331 332 333 333 334 333 333 334 335 334 333 332 333 334 332 331 331 332 332 332 331 333 328 326 326 325 326 327 320 316 314 316 315 316 318 317 314 310 308 306 304 304 307 306 307 308 308 307 307 306 306 304 305 305 305
330 332 333 333 333 334 335 334 334 335 335 335 336 335 336 336 334 335 336 336 336 337 337 336 336 336 335 334 334 333 330 333 332 332 332 333 332 333 332 333 333 332 333 332 332 331 331 332 332 331 332 331 326 324 324 323 323 325 320 317 315 311 309 310 316 315 316 313 310 309 306 305 300 301 303 306 306 306 307 307 307 305 306 307 303
330 332 333 332 332 333 334 334 335 334 335 335 335 335 336 335 334 336 335 336 336 337 337 336 336 333 333 333 333 333 332 330 330 330 331 333 333 332 333 333 333 332 332 332 333 331 330 330 330 328 328 328 325 322 321 321 321 322 322 317 313 310 308 307 312 316 318 318 317 312 309 306 303 302 302 303 305 305 304 305 311 306 305 308 304
331 332 332 332 332 333 334 334 334 334 334 335 335 336 335 334 334 335 335 336 336 337 336 336 334 332 331 330 329 329 328 327 328 329 331 331 331 332 333 333 333 331 331 332 332 332 330 328 326 325 324 323 322 320 319 319 318 318 319 318 313 310 309 307 308 314 316 317 316 315 314 310 305 304 298 294 305 306 305 306 305 305 306 307 304
332 333 333 332 332 332 333 333 334 333 334 335 335 335 334 333 333 335 335 336 337 336 336 336 333 332 332 331 331 329 328 327 327 332 332 330 331 332 332 330 331 331 331 331 331 330 328 326 323 323 322 321 322 319 318 318 318 317 318 316 312 313 311 308 309 311 311 313 314 313 316 313 309 305 301 297 295 301 303 302 302 303 304 304 306
331 332 332 333 332 332 332 333 334 334 334 334 334 334 333 332 332 335 335 336 337 336 336 335 333 332 331 330 329 328 328 328 330 331 330 331 331 330 330 329 330 330 331 330 328 328 326 323 323 321 320 320 321 318 318 317 318 318 317 317 314 311 310 310 309 309 309 310 315 312 313 312 310 307 304 298 298 296 297 301 302 303 304 303 305
331 332 332 332 332 332 333 333 334 334 334 333 333 333 333 332 332 334 334 335 336 336 335 334 334 332 331 329 328 328 328 329 330 330 329 330 328 327 328 327 327 327 328 327 325 324 324 321 320 319 318 318 320 318 317 316 315 314 314 314 313 313 312 311 309 307 308 309 309 309 309 308 307 307 308 304 300 296 296 297 298 302 304 302 303
332 333 333 333 333 333 334 335 334 334 334 334 333 333 333 332 331 333 333 335 336 335 335 333 333 332 329 329 328 328 329 329 329 328 327 327 326 324 324 324 325 325 324 323 321 321 320 320 319 318 318 318 319 316 316 315 314 313 313 313 314 312 310 310 309 306 307 306 308 308 307 304 305 305 304 302 302 299 297 296 298 299 298 298 301
331 332 333 333 333 334 334 333 333 333 333 333 332 333 332 332 331 332 333 334 335 334 334 333 332 331 330 330 329 328 328 329 329 327 326 325 324 323 323 322 322 322 322 320 319 318 318 319 317 317 319 320 318 316 315 315 313 313 313 313 312 311 310 309 309 307 307 306 305 305 305 305 303 302 304 303 301 299 298 298 299 302 297 296 298
331 331 331 331 332 333 333 332 332 332 332 332 331 332 332 332 331 331 332 333 334 334 334 333 332 331 331 330 329 329 329 329 329 327 327 325 324 323 322 322 321 320 319 318 318 318 318 317 318 316 316 315 315 316 315 314 314 314 313 313 312 311 310 309 307 306 306 305 304 303 303 304 304 304 304 304 303 300 301 299 299 300 295 295 298
330 331 330 331 332 331 331 331 331 331 331 331 331 331 331 331 331 331 331 332 333 334 333 333 331 330 330 330 330 330 329 329 328 327 326 325 324 322 322 321 319 318 317 317 317 317 317 314 314 314 314 316 317 317 316 315 314 312 312 312 310 308 307 307 306 305 304 303 303 303 303 303 303 303 303 302 302 302 302 300 300 296 292 293 294
330 330 330 331 332 332 331 331 331 331 331 331 331 331 331 331 331 331 331 332 333 333 333 332 331 330 330 330 330 330 328 328 328 327 326 326 325 323 322 321 319 318 317 317 318 317 316 316 314 314 315 316 316 315 315 314 313 312 311 310 309 307 307 306 305 304 303 303 303 302 302 303 302 303 301 301 301 301 300 301 299 296 292 292 295
330 330 330 331 332 332 331 331 331 331 331 331 331 331 331 331 331 330 330 332 333 333 332 331 330 329 330 330 330 329 328 328 327 327 326 325 324 323 322 321 319 318 317 317 317 315 314 313 314 314 314 315 315 315 316 314 314 312 311 310 308 307 306 306 304 304 304 303 303 303 304 303 302 302 301 302 301 301 301 299 295 293 292 293 294
329 329 330 331 332 332 331 331 331 331 331 331 331 332 331 331 331 331 331 332 333 332 331 331 329 329 329 329 329 328 328 327 326 326 326 325 324 323 321 320 318 317 317 316 315 314 313 314 314 315 315 315 315 314 314 313 312 310 309 309 308 309 305 305 304 304 303 303 302 302 303 302 303 303 302 301 301 301 301 300 295 295 293 290 293
328 329 330 331 332 332 332 332 332 331 331 331 332 332 332 331 331 331 331 332 332 332 331 330 329 328 327 328 328 327 326 326 326 325 325 324 323 322 321 319 318 317 316 316 314 314 314 314 314 314 314 314 314 314 313 312 311 310 308 308 307 306 306 303 303 303 302 302 302 302 301 301 301 303 302 302 301 301 301 300 299 295 295 293 289
328 329 331 332 332 332 332 332 332 332 332 332 332 333 333 332 332 332 331 331 331 331 331 330 328 328 327 327 327 327 326 326 326 325 325 324 323 323 321 318 317 317 316 316 314 313 314 317 314 314 313 313 313 312 312 311 310 309 308 307 306 306 305 305 305 303 303 304 304 302 301 301 302 301 301 302 301 300 300 301 300 299 298 296 290
327 328 330 331 331 332 332 332 332 332 332 333 333 333 333 332 332 333 332 332 331 331 331 330 329 329 328 327 327 326 326 326 326 325 325 324 323 322 320 318 317 316 316 315 313 313 313 313 314 313 312 312 312 311 311 310 309 308 307 306 306 305 304 303 303 303 303 303 302 302 301 301 301 300 301 301 302 301 300 299 299 300 299 298 295
327 328 329 330 331 332 332 332 331 331 332 332 332 332 331 332 332 332 333 333 331 331 331 330 330 329 328 327 326 326 326 326 325 324 324 324 323 322 319 317 316 316 314 314 313 312 312 313 313 312 311 311 311 311 310 309 308 307 306 305 305 304 304 303 303 303 304 302 302 301 301 301 300 300 300 300 300 301 301 300 300 299 298 298 297
327 328 329 330 331 331 332 332 332 332 332 332 332 332 332 332 331 332 332 332 331 331 332 331 331 329 328 327 327 326 325 324 324 323 324 323 322 321 319 317 316 314 314 313 312 312 312 313 312 312 311 310 309 309 309 308 307 306 305 305 304 304 303 302 303 302 302 302 302 301 301 300 300 300 299 300 300 299 299 300 300 298 298 297 296
327 328 329 330 330 331 331 331 332 332 331 331 332 332 331 331 331 331 333 332 331 331 331 331 331 330 328 328 327 327 325 324 322 322 322 321 320 319 317 316 314 313 313 312 311 311 311 312 312 311 310 310 310 309 308 307 306 305 305 306 304 303 302 301 301 301 301 302 301 300 300 300 300 300 299 299 299 299 299 298 297 298 296 298 296
327 328 329 329 330 330 330 330 330 330 330 331 331 331 331 331 330 331 332 332 332 332 331 331 331 331 329 328 327 326 325 323 322 322 321 320 319 317 316 315 313 313 312 311 311 311 311 312 311 310 310 309 309 308 307 306 305 305 304 303 303 302 301 301 301 300 300 300 300 301 300 300 301 299 299 298 299 298 298 297 297 297 296 297 298
327 328 329 329 329 329 329 329 329 329 329 329 330 331 331 331 330 331 331 331 332 332 331 331 331 330 329 328 326 325 323 322 321 321 319 318 317 315 316 314 313 313 311 311 310 310 311 311 310 310 309 308 308 307 306 306 305 304 303 303 302 302 301 300 301 300 301 301 300 300 299 299 299 298 297 297 297 297 296 296 296 296 296 296 296
326 326 327 328 328 328 328 328 328 329 329 329 330 330 330 330 330 330 331 332 332 332 331 331 330 329 328 327 325 324 323 321 321 320 318 317 315 314 315 314 313 312 311 310 310 309 309 310 309 308 307 307 307 306 305 305 304 303 303 303 302 301 300 301 301 301 305 300 301 299 299 299 298 297 296 296 296 295 295 296 295 295 295 295 295
325 326 326 326 327 328 328 328 328 328 328 329 329 330 330 329 329 331 331 331 332 331 331 330 330 328 327 326 324 323 322 321 320 319 318 316 315 314 314 313 313 311 310 310 309 308 309 308 307 307 306 306 306 305 305 304 303 303 303 302 302 301 301 301 301 301 300 301 301 300 299 300 299 298 296 295 295 294 295 294 294 294 293 293 293
324 325 326 327 326 326 327 327 328 328 328 329 329 329 329 329 329 331 332 332 332 331 331 330 329 327 326 325 324 323 322 320 319 318 317 316 314 314 314 313 313 312 310 309 307 307 308 307 306 306 306 306 305 304 304 303 303 303 302 302 301 301 301 300 299 300 299 299 300 300 299 299 299 298 296 295 294 294 295 294 295 293 292 292 292
325 325 325 325 326 326 326 327 327 328 328 329 329 329 329 328 329 330 332 332 332 331 330 329 328 326 325 324 324 323 322 321 319 318 317 315 314 313 313 313 313 311 310 308 307 307 307 307 306 306 306 305 304 304 303 303 303 302 302 301 301 300 300 299 297 297 297 297 297 298 298 298 298 297 296 294 294 293 293 293 293 293 292 291 291
323 324 325 325 325 325 325 326 327 328 328 328 328 328 328 329 329 330 331 331 332 331 330 329 327 325 324 324 324 323 322 320 318 317 316 314 313 313 313 312 311 310 310 308 307 307 306 305 305 305 305 305 304 304 304 303 302 302 301 301 301 300 298 297 296 295 295 295 294 295 295 296 301 304 303 300 299 298 294 292 293 292 291 290 289
323 324 325 325 325 325 325 326 327 327 327 327 328 328 328 328 329 330 331 332 332 330 329 328 326 325 324 324 323 322 320 319 317 316 315 314 313 313 312 311 310 310 309 308 307 306 306 305 305 305 304 305 304 304 308 306 305 303 301 301 301 299 297 296 295 293 293 293 294 296 301 308 309 308 306 301 298 298 299 294 292 291 290 289 288
323 324 325 325 325 325 325 326 326 326 326 328 328 328 328 328 329 329 330 331 331 330 328 327 326 325 324 323 322 320 319 318 317 316 315 314 313 312 311 311 310 309 308 308 306 305 304 305 305 304 304 304 304 305 303 298 299 302 303 300 299 297 296 295 294 292 292 295 296 297 300 306 306 305 299 298 297 297 297 298 300 300 296 290 288
323 324 325 324 324 324 324 325 325 326 326 327 328 329 328 327 328 329 330 331 331 329 327 326 325 325 324 322 321 319 318 317 316 315 315 314 312 311 311 310 309 308 308 307 305 305 304 304 304 304 303 303 303 305 297 297 297 298 303 301 299 297 296 294 292 292 294 295 296 298 298 298 294 293 294 294 295 294 293 293 293 293 293 294 295
324 324 324 324 324 324 325 325 326 326 326 327 328 329 327 328 328 329 330 330 329 328 327 325 325 324 323 321 320 319 318 317 316 315 315 313 311 311 310 309 308 308 307 306 305 304 303 303 303 303 302 303 302 299 296 297 297 297 298 301 298 297 295 293 292 292 292 293 294 295 294 294 296 302 299 292 293 295 296 295 296 296 295 292 290
324 325 325 325 325 325 325 326 326 327 327 328 328 329 329 329 329 330 329 329 328 327 326 324 324 323 322 321 319 318 317 316 316 315 315 312 311 310 310 310 309 308 306 305 303 303 303 303 303 302 301 301 300 298 296 296 296 296 296 298 298 296 295 293 292 291 292 293 294 293 293 295 298 299 293 293 294 294 294 295 294 292 293 298 296
324 324 325 325 325 324 324 324 325 326 326 328 328 329 329 329 329 329 329 328 327 326 325 324 323 322 321 320 319 318 317 316 316 315 314 313 311 310 310 309 308 307 306 304 303 302 302 303 302 301 299 298 300 296 295 296 295 296 296 298 298 297 295 293 292 292 293 294 296 297 296 297 299 296 297 297 297 297 297 298 295 293 292 291 291
324 324 324 324 324 324 324 325 326 326 327 328 328 329 329 328 329 328 327 327 326 325 324 323 322 321 320 319 319 318 317 316 316 315 314 313 312 311 310 309 308 307 306 304 302 302 302 302 301 299 299 297 296 294 295 295 295 295 297 302 299 297 295 294 293 293 294 295 297 298 298 297 295 294 299 295 296 295 294 295 295 294 294 293 292
325 326 325 326 326 325 325 325 325 326 327 327 328 328 328 327 327 327 327 326 325 324 323 322 321 320 319 319 318 317 316 316 316 315 314 313 311 311 311 310 308 306 304 303 302 302 302 301 299 299 298 296 295 294 294 295 295 294 298 301 300 298 298 296 295 295 295 298 298 296 296 295 292 291 293 290 292 295 295 295 295 294 294 293 293
325 325 324 325 326 326 325 326 325 325 327 327 327 327 327 326 326 326 326 325 324 323 322 321 320 319 319 319 318 317 316 316 315 314 314 313 312 312 311 310 308 306 304 303 303 303 302 301 299 298 298 296 295 295 294 295 295 296 300 301 301 299 298 297 297 297 297 297 297 305 301 294 291 290 291 289 291 296 296 297 294 292 291 288 288
323 323 323 324 325 326 325 325 325 324 325 326 327 328 327 325 325 325 325 324 323 322 322 321 320 319 318 318 318 317 316 316 315 315 314 313 312 311 310 310 309 307 305 304 304 302 300 299 299 298 302 298 295 295 293 294 295 296 300 301 300 299 298 298 298 298 299 300 301 306 304 297 293 292 289 289 291 296 297 297 293 291 290 288 287
322 323 325 326 325 324 325 325 324 325 325 326 327 327 325 325 324 325 324 323 323 322 323 322 320 319 319 318 318 317 316 316 315 314 314 313 312 310 309 309 308 307 306 305 304 303 301 300 299 298 299 297 296 296 295 293 295 296 298 300 299 299 298 297 298 299 299 298 300 301 300 293 291 290 288 289 290 293 296 296 292 290 289 289 288
322 323 318 325 326 326 325 325 326 326 326 326 327 326 324 324 323 324 322 323 323 323 323 322 321 320 319 318 318 317 315 316 316 315 314 313 311 310 309 308 307 306 305 304 304 303 301 299 298 298 297 297 298 297 295 293 294 295 296 298 299 299 299 299 299 299 298 295 294 296 296 293 290 289 289 289 290 291 294 295 291 289 288 288 288
319 319 323 326 326 325 325 325 326 326 326 327 327 324 323 323 323 322 323 324 324 323 322 321 320 319 318 317 316 316 316 316 316 315 313 312 311 311 309 309 307 305 304 303 302 301 300 298 297 298 298 298 301 300 297 293 293 294 295 296 299 299 299 300 300 298 296 294 293 293 293 292 289 288 288 289 289 290 291 297 290 289 289 288 288
319 320 322 326 325 325 325 325 325 326 327 327 326 323 322 322 323 322 323 324 324 323 321 320 319 318 317 316 315 314 315 316 315 314 313 311 311 310 309 308 307 305 304 302 301 300 299 298 298 299 299 299 300 300 297 296 293 292 293 295 295 296 295 301 299 297 296 296 295 293 294 294 288 289 288 289 289 289 292 293 289 288 288 288 290
318 319 318 319 323 324 324 325 326 326 326 326 325 322 321 322 322 323 323 322 322 321 320 318 316 316 315 314 314 313 315 315 314 313 312 311 309 309 308 307 307 305 303 302 300 300 300 299 299 299 299 298 299 299 296 295 294 291 291 292 292 293 295 300 300 297 296 295 295 295 294 291 289 289 288 288 288 289 289 290 288 288 288 289 289
317 317 317 319 319 319 319 321 324 325 326 326 325 322 318 320 319 320 321 320 320 319 318 317 316 315 314 313 312 313 313 313 313 313 311 310 308 308 306 306 306 304 303 302 300 300 300 300 299 298 298 298 297 296 295 294 292 291 290 290 290 290 291 293 296 296 294 294 294 293 292 291 289 289 288 288 288 289 288 289 289 288 292 286 286
317 317 319 320 320 320 319 318 321 324 324 324 324 323 319 318 318 319 320 319 318 317 316 316 315 314 313 314 313 312 312 312 312 313 312 310 309 308 307 306 305 304 303 302 301 301 300 299 298 297 297 297 296 295 294 293 294 293 291 290 290 290 292 294 294 291 290 290 289 290 291 290 289 289 289 288 287 288 289 289 288 289 289 286 287
318 318 317 319 319 319 318 318 320 321 322 323 323 323 322 319 318 318 317 317 316 315 314 314 314 313 313 313 313 312 311 311 312 312 312 310 309 309 307 305 305 304 303 302 301 300 300 298 298 297 297 296 295 294 294 293 292 292 292 292 291 291 292 292 293 292 292 291 290 292 290 289 289 289 289 289 289 292 291 292 291 291 290 288 288
318 318 319 318 318 319 319 319 319 321 321 321 321 320 320 319 319 317 316 315 313 313 314 313 313 313 312 313 312 302 307 311 311 311 310 309 309 309 307 305 305 304 302 301 301 300 299 299 298 298 297 295 293 293 293 293 293 293 291 290 290 291 291 290 291 291 290 293 290 290 290 291 289 288 287 288 289 291 291 290 291 291 291 291 292
318 319 318 320 320 319 320 319 319 320 320 320 318 317 319 319 318 317 316 314 312 309 312 312 312 312 311 311 311 309 310 310 310 310 310 310 309 308 307 307 306 306 306 304 303 302 301 301 301 299 297 296 295 294 295 293 294 292 292 292 291 291 291 290 293 292 294 291 289 289 289 289 288 287 287 287 286 288 289 290 291 291 291 291 292
318 319 320 320 319 319 319 319 319 320 320 319 317 317 318 318 317 316 315 313 311 311 312 311 311 311 310 309 309 310 310 309 309 308 304 299 290 294 302 307 305 300 299 299 299 302 302 301 300 300 299 297 296 298 294 292 292 291 291 292 291 291 290 292 292 291 292 289 288 288 288 289 290 290 288 287 288 288 289 289 290 289 289 289 290
319 319 319 319 319 318 319 318 320 320 320 318 317 317 316 316 316 316 315 313 312 311 310 310 309 309 307 309 309 309 309 309 309 306 304 301 300 297 290 288 294 298 296 296 296 297 296 296 300 299 297 296 296 294 293 293 292 291 291 291 290 290 290 291 290 291 290 287 286 286 287 288 288 290 288 288 288 288 287 288 289 289 289 290 289
Wind_Speed
12 12 13 12 11 10 10 11 11 11 12 13 14 14 14 14 12 11 9 10 10 9 8 9 9 8 7 8 8 6 5 4 5 4 5 6 6 6 6 6 6 5 5 5 6 6 5 5 5 4 4 5 4 4 3 4 4 6 6 6 9 9 5 6 7 11 12 8 7 7 7 6 6 6 6 5 4 4 4 6 4 4 4 4 1
7 7 7 8 9 10 11 11 13 15 12 14 15 14 13 13 13 11 9 10 10 10 9 9 9 9 8 8 5 4 6 6 5 4 5 5 5 6 6 6 6 5 5 4 5 6 6 5 5 5 5 4 4 4 4 4 4 5 5 5 2 8 5 4 7 8 4 8 8 5 6 6 5 6 5 4 4 4 3 4 4 4 3 2 2
11 13 13 13 13 12 12 12 13 16 16 15 13 13 12 12 11 10 10 10 10 11 10 9 6 5 6 4 6 4 2 3 6 4 4 6 5 5 5 5 5 4 4 4 5 5 5 6 5 5 4 4 5 5 5 5 4 5 6 7 5 2 4 1 6 1 6 4 6 7 3 4 3 4 3 3 3 3 2 3 2 2 2 1 1
16 15 14 13 13 13 12 12 13 12 13 12 14 15 12 11 10 11 11 10 10 10 10 7 7 5 4 6 5 5 4 3 4 5 4 5 5 3 3 4 4 5 4 4 4 4 5 6 5 5 4 3 6 6 5 5 4 5 6 6 7 5 2 1 0 2 7 10 3 2 3 5 5 1 1 1 2 2 2 1 1 1 0 1 2
18 16 15 14 14 15 16 15 14 15 15 16 15 14 11 13 11 11 11 10 10 10 10 8 8 6 7 7 7 7 5 5 5 4 4 5 5 4 4 3 4 5 5 5 4 5 3 3 4 3 3 3 4 5 5 5 4 3 6 7 6 7 4 2 0 2 9 2 8 6 3 1 3 4 3 1 1 1 1 1 0 0 1 0 1
21 20 19 19 19 16 13 14 16 15 15 15 14 14 12 11 11 9 9 10 11 11 10 9 9 9 9 9 9 7 8 8 9 9 7 7 7 4 3 3 4 4 4 4 3 3 3 3 3 4 5 5 5 5 5 5 4 4 3 6 5 4 7 4 2 1 2 0 1 3 7 6 8 7 4 3 1 0 1 1 1 1 0 0 2
16 19 19 19 16 16 16 16 16 15 14 13 13 13 12 12 11 11 11 10 10 10 10 9 9 9 11 10 8 9 9 3 3 5 7 5 5 5 4 3 3 4 4 3 3 3 3 3 4 5 5 5 5 6 5 5 5 3 3 5 5 6 6 5 6 4 3 2 2 1 3 3 11 10 4 5 3 1 1 0 1 1 1 1 2
16 16 18 20 21 21 20 19 16 17 15 14 13 12 14 13 13 12 10 10 9 9 10 10 10 9 9 7 7 7 7 7 6 6 4 6 6 5 4 3 3 3 4 3 3 3 4 4 5 5 6 4 5 5 6 5 5 4 3 5 5 5 7 9 5 4 6 2 1 4 5 6 6 2 6 8 6 7 2 2 1 2 2 2 2
18 18 19 19 20 20 18 18 16 15 15 15 15 14 14 13 12 10 11 11 10 11 10 9 9 9 8 8 8 5 6 7 5 5 6 5 7 4 5 4 3 3 3 4 4 5 5 5 5 5 5 5 5 5 4 4 5 6 6 6 6 4 4 4 5 4 4 5 6 4 6 5 3 3 5 4 5 5 1 3 2 1 1 2 4
19 22 21 20 19 19 18 17 17 17 15 14 14 13 12 11 11 12 12 11 11 10 9 9 9 9 8 9 10 7 6 6 6 6 6 6 6 5 5 5 5 4 4 4 5 5 5 5 5 5 5 5 5 5 5 5 4 5 5 6 6 7 3 5 6 5 3 2 2 6 6 4 4 3 2 4 4 3 8 5 4 3 3 3 4
18 19 19 18 16 16 16 17 17 13 12 13 13 14 12 12 12 13 13 11 10 10 10 10 8 9 9 10 11 11 9 10 8 7 6 6 7 6 5 5 5 5 5 5 5 5 5 5 5 5 4 4 5 5 5 5 5 6 5 5 6 7 6 7 6 4 5 5 4 4 5 6 7 5 7 4 4 3 5 3 1 2 4 8 2
19 18 16 13 13 13 13 15 15 15 13 13 12 12 12 11 12 13 11 11 11 9 10 10 9 10 9 11 11 11 12 10 11 11 9 9 8 7 5 5 5 5 5 6 5 5 6 5 5 5 5 5 5 5 4 4 5 5 5 5 5 5 6 7 6 6 6 6 5 5 5 5 4 6 4 5 7 6 9 7 5 2 4 4 2
19 18 16 16 17 18 17 16 14 15 15 15 15 14 12 11 13 14 12 11 12 10 10 10 10 10 10 11 11 10 11 11 11 10 9 9 8 8 7 6 6 6 5 6 4 5 6 6 5 5 5 5 7 6 5 4 5 6 6 6 5 5 6 7 7 5 6 7 6 4 5 5 5 3 4 6 5 7 9 7 1 3 7 4 1
19 18 18 18 18 18 19 18 16 15 15 15 15 14 12 12 13 14 13 11 10 10 10 11 10 10 10 10 10 10 10 10 9 10 9 8 8 8 7 7 6 6 6 6 5 5 5 5 6 5 5 5 6 5 5 4 5 6 6 7 6 5 6 7 8 6 7 5 5 6 6 6 5 3 4 6 7 8 7 9 6 4 3 3 2
18 18 18 19 19 19 17 17 16 15 16 15 14 14 12 12 13 13 12 12 12 11 9 11 10 10 9 9 10 9 9 9 8 8 9 9 7 7 6 6 6 5 6 5 4 5 5 6 6 6 5 5 5 6 4 4 5 6 7 7 6 6 7 7 6 7 8 6 5 6 6 6 5 4 6 5 4 4 8 8 9 10 4 4 3
17 18 18 19 19 18 16 16 15 15 16 14 15 14 13 13 12 13 13 11 11 10 10 11 10 9 9 10 10 9 8 7 7 6 6 7 7 7 7 6 5 6 5 5 4 6 6 6 6 7 5 6 5 7 5 5 5 7 6 7 7 5 8 8 6 7 7 6 6 4 7 5 5 6 6 6 6 5 6 5 7 9 10 4 1
18 18 17 19 17 17 18 18 15 14 15 15 16 16 15 13 13 13 12 10 11 11 10 10 10 10 9 10 9 9 10 10 10 9 8 7 7 6 6 6 6 6 6 5 6 4 5 6 7 7 6 6 6 6 6 5 5 6 6 7 7 7 8 6 6 7 5 5 5 6 6 6 6 5 6 6 6 6 6 6 4 8 8 9 3
21 20 19 21 20 20 17 15 16 18 18 16 16 13 13 13 13 13 12 13 11 11 11 10 11 11 10 9 9 10 9 9 9 10 8 8 7 6 6 6 6 6 6 5 6 6 6 5 7 7 5 6 6 6 7 6 6 6 6 6 6 7 7 5 5 6 5 5 6 6 5 7 5 7 6 5 6 6 7 7 6 4 5 8 5
18 18 17 18 18 18 17 16 15 15 16 17 16 13 12 11 12 12 12 11 10 9 9 8 10 8 8 9 10 9 8 8 8 8 8 9 9 8 7 6 6 6 7 7 6 6 6 6 6 7 5 6 5 6 6 6 6 7 6 6 6 7 7 6 4 5 4 5 6 7 6 7 6 7 6 6 5 6 7 6 6 6 5 6 7
18 18 18 19 18 18 18 17 16 15 14 12 12 12 13 12 12 11 11 11 11 11 10 11 9 9 8 8 8 8 9 9 9 10 9 9 9 9 8 7 7 6 6 6 6 6 6 7 5 6 6 5 5 4 5 6 6 6 6 7 6 7 7 6 5 3 3 5 6 6 5 6 5 6 6 6 6 5 5 6 6 7 6 5 6
18 18 18 18 17 16 15 15 15 14 13 12 13 14 14 12 13 13 14 14 13 12 11 11 9 9 11 10 10 9 9 8 9 8 8 8 7 8 7 7 6 6 7 7 7 7 6 8 7 7 7 6 6 5 4 5 6 7 6 7 6 7 7 4 5 5 4 5 6 7 6 5 4 7 6 6 6 5 5 6 5 6 6 3 5
19 19 18 16 16 15 13 11 10 12 13 14 13 12 13 14 14 13 13 13 13 12 11 11 10 10 11 10 11 9 9 8 9 8 8 8 8 8 7 7 7 6 7 7 7 6 6 7 7 7 7 6 6 6 5 6 7 8 7 5 6 6 6 5 5 5 4 4 6 8 6 5 5 6 6 6 5 5 5 6 5 6 6 6 2
19 18 17 17 17 16 15 15 16 15 15 15 14 14 14 14 13 13 14 14 13 12 11 10 10 11 11 10 10 10 10 10 10 8 9 8 8 7 7 9 8 7 6 7 7 7 7 7 7 7 7 6 6 6 5 6 6 7 8 6 6 6 6 6 6 5 6 5 7 7 6 5 5 8 6 6 6 5 5 6 5 5 6 5 4
18 16 16 16 16 15 13 14 14 13 13 14 13 13 12 13 13 13 14 14 13 12 11 11 11 11 11 11 11 10 11 10 10 9 10 9 8 7 7 8 8 7 8 6 7 7 6 7 7 7 7 6 6 5 5 6 7 7 7 7 6 6 5 5 6 6 6 6 7 7 5 6 6 7 6 6 5 5 6 5 6 4 6 6 4
17 17 16 15 15 15 15 15 15 14 13 13 13 13 13 13 13 13 13 13 12 12 12 11 11 12 12 11 11 11 11 11 10 9 11 10 8 8 7 9 8 8 7 7 6 6 6 7 7 7 7 7 6 6 7 6 5 6 7 7 7 6 6 5 5 5 6 6 6 6 6 6 7 8 5 6 6 6 4 6 5 5 6 4 5
19 17 15 18 17 16 15 15 13 13 14 14 13 13 13 12 13 12 13 13 12 12 12 12 11 12 12 13 12 11 12 12 11 10 11 10 9 8 8 8 9 9 7 7 7 6 6 7 6 6 6 6 6 6 7 7 7 6 6 7 7 7 6 5 5 4 5 5 7 6 5 6 7 7 6 5 6 6 5 5 5 5 5 5 6
20 19 18 16 15 17 17 16 15 14 14 13 14 14 13 13 13 12 13 13 13 12 12 12 12 12 11 12 12 12 11 11 11 10 9 9 9 8 9 9 8 9 9 7 6 7 6 7 6 6 6 7 6 6 6 7 7 7 7 7 7 7 6 5 4 5 5 6 6 6 6 6 7 7 6 6 6 5 6 5 5 5 4 6 6
17 16 18 19 18 17 15 15 14 13 13 13 13 13 14 14 14 13 13 13 11 12 13 13 13 12 11 12 12 11 10 10 9 10 10 9 8 8 8 8 8 9 8 8 8 8 6 6 6 6 6 6 6 6 6 7 7 7 7 7 7 7 7 6 5 5 5 6 6 5 5 6 7 6 7 6 7 7 6 6 4 6 6 7 5
19 20 19 19 18 16 16 15 14 14 15 14 13 12 12 11 12 12 13 14 13 13 13 13 13 12 12 11 11 10 9 9 10 10 10 9 9 8 8 8 8 7 7 7 7 8 8 7 6 6 7 6 7 7 6 7 8 7 7 7 8 8 8 8 6 5 5 6 5 5 5 5 7 8 9 8 8 8 7 8 5 6 6 7 5
19 19 18 18 19 18 17 16 15 16 16 15 14 14 14 14 13 12 13 12 13 13 13 13 13 12 12 12 11 10 10 10 11 11 10 10 9 9 9 8 8 8 7 8 8 7 8 8 7 7 6 6 6 5 7 11 9 7 7 7 7 8 8 8 8 7 5 5 5 5 6 11 12 12 10 10 10 9 9 9 8 7 7 6 6
20 19 18 17 17 17 17 17 17 17 17 16 15 14 14 13 13 13 13 13 13 13 13 13 13 12 12 12 11 10 10 11 11 10 10 10 9 9 8 8 8 8 8 8 8 8 7 7 8 8 7 6 6 5 11 12 12 12 8 8 9 8 7 8 7 8 7 7 5 5 5 8 10 10 9 11 10 10 10 10 10 8 7 8 7
19 19 18 17 16 16 17 18 18 17 17 15 14 14 15 14 13 14 13 13 13 13 13 13 12 12 12 13 11 12 11 11 11 11 11 10 9 9 9 9 8 8 7 7 8 8 7 7 7 7 7 6 5 8 13 13 13 13 11 8 8 8 7 7 7 8 7 7 7 6 5 4 5 7 7 6 8 9 9 10 11 10 8 7 5
20 18 18 18 18 18 19 18 17 16 16 15 15 14 15 14 14 13 12 13 13 13 13 13 13 13 13 12 12 12 12 11 11 11 10 9 9 9 9 9 10 8 7 8 8 8 8 7 8 8 7 6 5 10 13 13 13 13 13 10 7 8 8 7 7 7 7 6 6 6 6 4 5 11 7 5 5 5 5 7 8 8 7 7 5
19 20 20 19 16 15 16 17 18 16 16 14 13 14 12 12 12 13 14 13 12 12 13 13 13 13 13 12 12 12 12 11 11 11 10 10 10 10 10 9 8 8 8 8 8 9 8 8 8 8 7 5 5 9 13 14 13 13 13 11 7 8 7 8 7 7 6 7 7 7 7 7 5 5 4 5 4 5 4 3 3 3 3 4 5
17 16 15 16 17 15 13 12 12 14 13 13 12 11 11 12 13 13 13 13 13 12 12 12 12 12 12 12 12 12 12 11 11 11 11 11 11 10 10 9 9 10 10 10 10 9 8 7 7 7 7 6 5 11 13 14 14 14 14 11 7 7 7 6 6 6 7 7 6 6 6 7 6 5 4 5 4 4 3 2 3 3 3 3 4
15 17 16 15 15 17 18 16 13 13 12 12 12 11 13 12 12 13 12 13 13 13 12 11 11 11 12 13 13 12 12 11 12 11 12 12 11 11 12 9 9 8 7 6 5 6 7 8 7 8 7 6 4 11 13 14 14 14 13 8 7 7 6 5 5 5 5 4 4 4 5 5 5 5 5 8 7 5 3 2 1 1 0 2 3
17 18 18 17 17 16 14 14 14 14 13 11 10 11 12 13 13 12 13 12 13 13 13 13 12 11 12 12 12 12 12 12 12 12 12 12 12 11 10 9 9 8 7 7 7 6 7 9 9 8 9 7 6 8 12 14 14 15 10 7 7 6 6 6 6 6 7 6 4 4 5 5 5 5 6 8 9 7 3 2 1 1 2 3 1
14 10 8 10 10 11 12 15 15 14 13 10 11 12 13 13 13 13 14 13 13 13 13 13 12 12 12 12 11 12 12 12 11 12 13 11 11 9 10 9 10 10 8 7 6 6 6 8 10 10 11 11 8 9 13 14 15 15 11 8 7 7 6 7 6 6 3 4 4 9 7 6 6 5 7 8 8 7 4 3 4 4 4 4 1
8 12 13 13 13 15 15 14 14 14 11 11 12 14 14 13 13 13 14 14 13 13 13 13 13 12 11 11 11 11 12 12 12 12 12 12 11 10 8 8 8 8 8 7 7 7 5 5 6 8 11 12 9 8 10 10 13 14 10 7 7 7 7 6 6 5 4 4 5 7 10 8 7 7 10 8 8 6 5 4 5 5 4 4 2
8 6 11 15 14 14 14 15 16 14 12 13 13 13 13 13 13 13 13 13 13 14 13 12 12 12 11 11 10 12 12 12 12 10 9 8 7 7 8 8 7 7 7 7 7 7 8 6 6 7 8 9 10 7 7 10 2 9 11 8 8 8 9 10 9 8 7 7 7 7 8 11 11 11 11 10 9 8 6 5 5 5 5 4 4
9 9 12 13 15 18 18 17 14 14 13 13 13 13 13 12 11 12 13 12 12 11 12 12 12 12 11 11 10 11 12 11 10 9 7 7 7 8 8 8 8 7 7 7 8 7 7 6 5 5 7 7 8 9 7 12 10 12 15 12 7 8 9 9 8 9 9 7 6 6 6 8 12 12 11 10 8 8 7 5 5 4 4 3 5
4 11 13 12 13 12 12 12 12 14 14 13 13 13 12 12 10 11 11 12 12 12 12 11 12 12 11 11 11 9 10 10 9 9 8 7 6 7 8 9 7 8 9 9 8 8 8 7 6 5 6 8 6 12 11 10 9 8 12 13 8 7 9 10 9 7 6 6 6 6 6 9 12 12 11 10 9 8 8 4 4 5 7 8 2
7 4 4 13 13 13 14 13 11 12 12 12 14 14 12 11 11 9 8 10 11 11 11 11 11 11 10 10 9 10 9 7 9 9 8 8 7 7 6 7 8 8 9 9 8 7 7 6 5 5 5 6 5 6 12 10 10 8 6 8 9 8 9 9 10 10 8 7 6 6 6 11 13 12 11 11 10 8 6 4 6 7 6 6 3
12 12 14 11 6 8 11 11 12 11 11 12 15 13 12 12 12 10 10 10 11 11 11 11 10 11 10 9 8 8 9 8 9 9 8 8 8 7 7 7 8 9 9 8 7 7 7 8 8 7 4 3 3 3 6 10 9 9 6 8 7 7 8 6 6 6 5 5 5 5 6 11 12 12 12 12 10 8 5 5 6 7 7 5 2
13 13 10 8 8 8 5 2 6 11 11 12 13 14 13 14 9 9 11 11 11 11 11 11 10 10 9 9 7 7 7 7 8 9 9 8 8 8 8 7 8 7 8 8 7 7 8 8 7 7 5 4 4 3 3 4 7 8 8 8 8 9 9 7 4 2 2 4 6 9 9 11 12 10 8 7 6 7 6 7 7 6 5 2 2
12 11 13 12 12 10 4 0 2 7 8 9 11 14 16 12 11 10 10 11 11 11 10 10 10 9 9 10 9 7 7 8 8 8 9 9 10 9 9 8 7 7 8 8 8 7 6 6 6 6 7 7 5 5 5 5 6 6 5 6 7 7 6 6 7 3 1 3 6 9 8 8 7 6 4 4 4 3 4 4 5 4 3 3 3
13 12 11 11 11 13 12 8 6 4 7 6 10 10 11 11 11 11 10 10 10 11 10 10 10 8 8 9 10 9 8 8 8 7 8 8 8 8 9 10 9 9 9 9 9 9 8 8 8 7 6 5 5 5 5 5 6 6 6 5 5 3 5 7 4 3 4 3 3 2 5 7 7 7 5 2 1 0 1 2 3 3 5 5 4
7 10 12 13 12 11 12 10 8 6 6 6 7 7 9 11 10 11 10 10 10 10 11 10 10 8 8 8 9 11 11 8 8 9 9 8 8 9 9 10 11 11 11 10 9 9 10 9 7 6 6 6 6 5 6 7 7 7 7 6 5 5 5 5 5 4 4 3 4 6 7 6 5 4 2 0 1 1 2 3 4 4 4 3 3
9 9 8 11 11 11 12 11 10 8 8 8 7 6 9 11 10 9 12 12 10 9 9 9 8 8 7 7 7 9 8 9 8 7 6 7 9 9 10 8 5 7 10 12 11 9 8 7 8 8 8 7 6 7 10 9 10 11 11 9 8 8 7 6 6 8 5 4 4 5 5 5 5 5 4 4 3 3 4 5 5 4 4 4 3
7 8 7 9 11 12 11 11 9 8 8 8 8 8 7 8 9 9 9 11 11 10 9 8 7 7 7 7 7 7 7 8 9 8 7 4 8 6 2 7 8 9 11 8 10 11 11 8 8 7 9 11 11 12 10 13 14 14 14 14 11 10 10 8 9 12 7 5 4 6 6 6 6 6 6 5 7 6 6 5 6 6 6 6 6
9 8 8 10 9 11 13 12 10 9 9 9 9 9 9 8 8 9 10 11 10 9 7 7 7 7 8 8 8 7 7 7 7 7 7 7 5 5 10 11 5 4 7 7 7 6 10 11 10 8 6 6 7 7 13 16 15 15 15 13 13 13 13 11 11 8 3 5 4 5 5 5 5 5 5 6 5 5 5 6 6 5 3 5 5
Wind_Direction
181 174 177 178 167 160 151 149 149 150 155 158 157 161 160 159 157 156 156 152 150 152 159 160 165 170 172 178 176 175 150 137 147 161 153 151 148 149 154 155 156 160 163 152 142 146 150 155 154 156 150 144 146 141 136 118 118 124 121 110 114 106 93 115 123 116 108 78 70 70 64 54 62 66 62 56 58 62 63 78 74 73 66 80 74
148 142 169 164 156 153 153 154 152 153 166 163 165 164 163 160 161 156 154 155 156 160 163 171 178 180 171 174 156 125 135 148 157 172 149 142 144 152 159 159 156 157 159 152 148 150 155 159 158 160 156 139 129 130 117 103 98 112 124 85 45 122 126 157 163 119 74 134 123 90 66 55 52 51 51 43 51 57 80 91 88 94 85 78 52
167 174 175 170 159 156 159 164 167 164 163 164 161 161 164 163 165 156 156 155 161 162 163 173 174 160 155 160 134 107 76 146 149 143 140 139 145 156 156 153 143 144 157 155 152 161 160 156 163 164 152 137 123 120 115 103 108 128 134 126 105 53 104 137 201 145 128 121 120 104 145 83 13 18 6 23 16 25 46 85 93 101 108 62 51
171 172 176 171 162 159 160 165 165 158 160 162 166 168 167 169 165 160 156 154 161 168 167 162 155 150 133 118 109 115 147 111 106 115 121 123 139 153 138 138 143 150 158 156 153 157 162 164 160 165 155 144 138 131 117 109 107 115 124 131 129 120 94 113 344 191 140 140 119 134 170 123 95 21 140 298 347 347 9 58 86 126 67 20 27
172 174 174 164 163 168 171 169 164 166 169 170 170 170 172 171 163 161 155 157 162 170 165 147 135 119 100 92 95 90 80 108 119 121 138 139 132 146 161 151 154 154 157 160 161 159 165 162 157 145 124 124 120 116 113 119 112 119 141 139 148 142 153 148 28 154 171 173 134 114 73 51 187 173 136 339 353 21 358 332 245 211 142 92 37
170 172 172 174 174 169 165 168 172 172 172 174 170 169 165 159 154 159 155 159 168 171 160 149 154 148 143 141 150 152 158 163 165 156 156 161 167 154 143 155 152 149 155 160 155 154 153 137 123 116 112 113 114 112 117 105 97 99 147 149 134 150 140 125 124 32 189 138 192 157 165 167 150 176 100 167 322 231 296 333 292 263 275 32 14
179 172 173 171 171 167 171 174 176 172 174 168 168 166 161 154 157 164 164 164 167 168 160 154 152 160 167 170 166 168 158 144 134 154 151 147 139 149 151 150 153 150 158 154 157 141 117 117 114 107 107 109 112 111 105 108 106 108 121 121 141 134 125 127 153 160 99 37 33 74 109 106 147 147 191 116 115 296 334 312 308 314 0 24 9
174 178 176 175 173 173 175 178 176 177 170 167 165 164 162 159 164 170 165 165 171 164 170 164 159 165 165 159 156 154 157 156 157 151 135 135 137 143 142 155 151 148 149 144 128 118 122 111 108 106 106 108 107 105 115 118 105 88 95 114 114 128 141 143 159 170 152 149 48 86 84 107 129 70 145 157 144 148 240 295 256 312 3 339 40
172 176 182 180 179 179 173 174 177 169 168 168 167 167 165 162 163 162 163 165 177 172 167 167 162 167 161 148 146 148 145 147 144 139 134 135 128 129 137 143 137 131 122 118 115 119 119 119 112 110 109 109 109 107 105 109 113 117 114 110 115 107 118 128 121 160 146 144 120 70 93 101 76 76 111 97 136 124 128 202 228 341 10 346 20
177 179 182 183 180 177 175 171 170 175 171 166 161 161 163 157 159 164 169 174 176 169 164 167 164 156 152 157 149 146 143 137 143 141 136 136 130 129 130 133 138 121 104 110 107 108 112 112 111 111 114 112 106 113 112 104 103 103 114 120 119 107 93 104 117 122 105 93 92 144 127 105 87 76 67 94 70 88 153 192 202 167 119 19 72
177 183 184 180 176 171 167 173 175 166 165 161 161 164 160 160 163 170 176 174 173 165 166 170 163 162 161 160 156 152 154 148 147 144 141 137 137 138 136 135 129 124 114 103 108 111 105 105 109 108 103 103 104 104 108 113 107 107 108 105 109 116 114 106 98 89 99 84 72 91 125 147 164 166 173 166 139 131 100 141 135 129 137 101 67
177 177 175 167 162 170 172 171 169 166 160 162 163 163 160 161 166 171 175 176 176 166 165 169 165 167 160 159 160 159 157 160 159 158 161 155 151 145 141 123 116 113 113 112 110 111 110 105 105 106 108 106 94 84 95 105 111 107 101 102 101 102 110 104 103 101 94 90 80 88 98 107 91 112 154 145 136 146 138 153 154 140 77 85 145
174 173 168 167 170 170 175 174 167 165 166 166 167 166 162 162 170 172 179 177 179 171 168 166 166 166 162 161 160 162 163 162 162 160 163 158 156 149 150 141 133 122 130 122 125 121 118 114 115 115 107 101 113 122 116 110 110 104 105 102 104 106 112 112 106 105 105 103 107 84 94 85 86 82 103 114 87 116 133 130 152 116 132 144 173
173 171 169 171 173 173 173 171 172 168 166 168 169 167 166 168 174 176 176 176 176 175 167 164 169 163 161 160 161 162 163 162 163 161 163 159 158 157 154 149 143 142 142 138 141 124 112 120 119 111 107 117 116 112 107 112 113 110 108 105 101 103 101 99 102 102 93 97 104 96 81 86 83 83 103 99 124 120 131 139 130 58 84 106 4
169 168 171 172 173 172 172 174 171 168 167 169 171 171 167 169 175 176 172 178 177 176 162 164 164 160 158 158 158 162 160 162 163 163 158 155 156 148 143 135 133 141 138 137 129 121 122 121 120 113 119 112 111 99 101 106 103 101 101 103 98 102 99 101 100 105 102 103 95 102 100 78 83 86 93 91 108 116 138 149 136 126 68 41 60
169 170 171 172 170 171 172 173 172 169 170 171 172 169 172 174 173 176 175 174 174 168 165 162 159 155 154 155 159 158 155 150 146 148 150 151 148 146 142 132 128 129 130 127 133 130 131 122 109 116 118 117 118 123 118 109 109 105 104 105 102 101 101 98 105 101 104 105 105 103 88 84 80 82 82 88 81 93 104 112 132 127 131 119 50
169 170 170 170 171 174 175 173 170 169 169 175 176 176 174 167 166 171 172 170 172 166 159 158 151 153 158 155 153 154 156 157 157 156 151 142 137 136 135 128 125 131 134 133 130 129 113 120 124 118 115 122 121 114 111 113 104 100 108 107 105 99 97 103 106 103 111 111 101 95 101 97 86 83 80 79 86 82 84 95 113 139 143 133 142
170 170 169 170 173 177 177 174 171 170 174 176 177 174 167 166 169 166 166 171 170 157 157 155 153 155 157 158 156 156 156 153 150 149 145 138 135 130 125 130 142 144 137 137 132 129 134 130 121 121 129 123 132 128 123 118 108 103 103 101 107 103 101 96 99 110 117 112 106 92 91 90 86 85 87 88 83 88 84 83 87 108 139 135 152
165 165 169 174 176 175 172 172 174 175 177 176 171 163 162 164 169 165 165 164 156 150 149 147 151 157 160 157 154 150 148 147 144 141 144 144 146 145 145 140 134 140 137 136 133 131 126 123 120 124 127 128 125 120 122 117 119 116 110 108 101 104 108 111 114 116 126 111 106 99 91 88 87 92 90 85 84 82 88 88 87 85 74 104 118
166 169 173 176 177 175 173 170 168 172 173 171 165 162 163 165 164 162 155 156 154 154 155 154 155 149 147 144 148 147 148 148 148 147 150 151 151 149 145 144 149 143 139 136 137 138 136 120 125 125 124 121 116 118 121 124 117 112 116 110 109 110 113 117 115 101 111 105 103 98 88 93 92 92 88 88 86 81 85 86 83 80 77 85 98
169 171 174 174 172 173 175 171 170 168 165 161 165 169 167 163 167 165 165 165 160 159 161 155 148 147 146 153 152 150 148 145 145 147 145 147 146 147 151 143 136 146 143 140 142 143 137 134 143 135 134 137 128 131 139 131 122 118 111 114 112 113 117 118 114 101 93 100 99 97 90 86 93 89 89 85 79 77 73 75 76 79 77 68 97
169 173 170 167 169 172 167 159 159 161 163 166 169 164 165 171 171 167 164 167 160 162 162 155 150 149 153 152 151 149 147 146 144 144 142 143 148 152 148 142 147 149 146 143 143 143 140 140 139 138 137 136 135 144 146 134 129 123 119 117 119 118 118 122 116 115 106 104 105 99 91 86 85 95 89 82 91 80 83 76 63 77 69 51 52
170 168 166 166 169 167 163 163 166 170 171 169 168 172 172 170 167 169 169 170 162 160 159 155 153 155 153 149 147 149 148 148 147 148 147 149 150 149 151 149 149 149 146 145 145 145 145 141 140 141 138 137 142 143 142 132 131 130 128 124 123 123 129 132 127 128 123 117 100 99 102 101 96 85 82 87 85 84 78 77 65 64 70 60 46
165 163 162 166 166 161 159 164 168 168 167 169 172 171 169 169 170 169 170 164 157 156 157 158 157 157 152 149 150 149 149 151 152 153 151 153 151 151 152 149 149 148 146 147 147 146 143 143 142 141 143 143 143 143 139 137 139 136 132 131 127 128 130 136 137 135 129 115 115 107 109 106 101 95 92 87 83 81 77 77 71 60 75 67 58
164 164 165 163 160 162 166 167 170 172 170 167 168 170 169 171 169 171 168 160 155 155 157 158 158 158 158 155 151 152 154 155 153 153 152 150 152 150 153 152 150 150 150 146 146 142 143 145 146 149 149 150 153 149 143 140 139 137 134 133 133 134 139 141 143 141 130 123 119 122 129 112 106 103 95 93 95 84 79 79 76 68 77 78 64
166 162 160 165 169 168 167 171 172 169 166 167 170 169 170 169 171 168 164 159 158 157 158 158 159 159 162 157 154 157 159 157 151 151 152 152 153 154 154 156 155 151 150 151 149 154 150 148 149 153 152 154 153 152 147 147 146 141 136 136 136 136 141 142 139 125 118 122 127 128 126 117 111 113 116 109 99 101 91 86 83 75 79 73 69
165 165 169 167 165 169 173 171 171 169 168 168 167 168 167 166 166 168 164 160 161 160 159 161 161 160 161 158 158 162 161 154 149 148 149 153 156 158 157 157 158 153 153 154 156 150 152 149 155 152 157 157 155 151 149 151 150 147 144 142 138 134 131 128 122 118 114 117 122 122 121 118 117 123 128 125 117 105 103 96 100 99 82 81 74
165 166 164 169 172 171 170 171 168 167 167 164 166 167 166 167 166 165 162 161 162 160 162 164 161 161 161 160 159 159 156 148 144 146 153 156 157 160 160 155 154 157 160 161 161 155 156 154 156 158 158 155 154 154 155 156 154 151 146 143 141 134 126 121 117 113 116 116 120 122 120 124 130 136 135 141 131 126 120 105 111 101 94 87 82
167 170 173 169 167 169 169 168 169 164 165 163 162 163 163 165 165 163 162 163 159 160 164 162 161 162 162 159 156 155 150 143 144 149 155 161 163 162 159 156 158 156 156 157 155 152 153 156 156 157 159 160 160 164 164 160 153 153 147 145 140 134 132 129 122 115 113 114 114 123 130 137 144 151 152 153 149 146 130 121 125 113 101 97 90
172 173 172 171 169 167 167 167 166 167 166 164 164 165 166 166 166 162 162 161 158 162 162 161 163 162 158 157 155 152 151 148 151 158 162 163 164 165 161 160 161 156 153 155 156 157 158 160 160 162 162 164 168 167 170 162 157 154 150 141 134 136 135 133 129 123 116 125 136 142 155 151 145 145 142 139 140 137 129 127 137 119 112 99 100
174 171 172 172 170 169 165 166 168 169 170 168 166 165 164 164 163 162 163 162 160 160 161 160 162 159 156 154 153 151 150 156 158 159 161 163 166 165 162 162 159 157 157 160 157 161 165 165 164 165 166 169 169 173 166 159 157 152 146 142 140 140 137 134 136 137 144 148 157 154 142 137 135 129 130 133 124 116 111 111 110 118 130 133 120
173 173 170 168 169 168 168 171 171 171 169 165 164 163 164 167 162 163 162 159 160 160 159 161 158 157 156 155 153 150 155 158 157 162 164 165 163 162 163 164 161 161 162 155 162 168 166 166 162 165 166 168 172 170 162 162 157 154 147 143 140 140 141 142 146 148 156 160 151 134 131 128 137 140 139 127 120 118 118 115 112 109 107 99 130
172 169 171 170 171 173 174 173 170 168 169 168 163 162 167 164 160 159 154 158 158 158 158 158 158 157 157 154 151 154 157 159 161 161 163 162 164 165 165 163 169 169 158 163 169 163 168 166 162 164 169 170 170 167 163 160 158 153 144 135 141 140 143 154 157 159 162 149 139 140 139 149 163 150 141 143 139 133 136 129 121 120 128 142 137
173 173 172 173 172 172 173 171 171 169 166 160 163 161 158 152 149 152 156 155 152 158 157 156 158 158 156 154 153 155 159 161 158 160 162 164 168 172 171 170 164 161 166 168 164 168 164 164 163 160 160 164 160 171 163 159 158 152 144 139 146 149 152 159 164 160 150 153 158 153 154 160 170 148 146 152 151 145 153 143 137 134 149 168 183
174 173 171 168 169 167 162 161 164 161 158 156 155 150 146 147 149 153 156 152 153 157 155 154 156 156 153 154 156 157 159 159 160 162 165 169 173 171 171 171 167 171 172 173 172 167 165 158 156 151 148 155 168 166 166 161 160 154 149 141 149 151 153 160 162 157 159 164 161 164 162 160 157 149 161 159 147 147 135 151 152 157 177 206 218
174 171 172 168 167 166 167 167 158 153 158 158 155 147 147 148 148 150 155 156 155 157 155 153 153 156 157 157 158 159 159 160 162 166 170 173 176 175 174 172 168 172 174 165 162 147 148 151 150 147 142 147 163 172 168 164 161 159 150 143 148 152 153 151 154 157 160 165 170 166 156 153 150 154 172 169 155 140 125 122 58 17 33 192 214
177 175 173 172 167 164 160 150 153 156 154 153 146 146 143 144 150 154 156 159 157 158 159 156 154 158 160 162 161 159 159 162 166 170 174 175 176 178 176 167 164 165 163 165 166 161 155 150 153 154 149 152 163 182 179 166 164 160 150 144 152 150 151 152 155 166 175 178 179 168 160 154 152 163 173 168 157 134 117 99 101 90 109 114 134
174 163 145 144 146 144 146 151 150 152 152 141 144 146 145 149 153 157 161 162 161 159 156 155 158 161 162 163 163 160 161 165 170 177 178 178 178 175 173 169 166 163 165 171 155 139 151 160 160 162 160 158 171 182 180 174 163 164 155 153 156 154 154 152 150 146 175 200 199 189 169 164 165 174 175 177 166 141 134 139 143 119 104 101 75
166 151 147 147 150 151 149 146 146 149 150 142 145 147 149 154 158 163 164 163 163 158 157 159 161 162 162 164 164 162 163 167 176 183 180 177 177 175 168 165 164 162 160 148 136 138 144 160 166 158 161 154 163 179 180 172 162 162 156 147 143 149 150 140 137 143 164 154 204 203 184 176 174 170 171 181 183 165 148 153 155 127 141 158 204
171 153 149 144 137 133 142 150 156 156 146 146 147 151 153 156 162 161 164 164 164 161 159 157 158 162 164 164 165 163 168 173 179 180 177 171 158 153 158 160 158 155 146 143 137 140 149 168 169 159 162 159 160 166 145 115 146 156 147 149 160 154 155 158 168 161 164 192 192 184 189 178 169 166 175 182 191 177 152 162 138 138 149 199 194
151 141 134 139 149 153 157 159 156 148 146 147 149 150 153 156 160 163 165 161 157 156 157 160 160 160 163 165 166 170 170 173 172 172 164 158 159 159 156 156 154 146 137 132 135 144 153 157 158 165 163 174 164 152 161 153 179 180 166 163 174 163 164 155 155 160 181 190 188 185 179 184 175 175 176 180 181 181 162 158 162 161 195 168 143
85 135 141 143 148 145 142 143 145 146 146 149 150 150 152 154 160 165 161 155 156 158 158 158 158 161 163 165 168 170 168 166 165 161 160 157 152 154 160 157 149 146 140 132 139 149 149 153 160 160 168 176 187 169 155 177 183 202 173 169 163 175 164 154 159 172 181 185 187 182 186 192 185 179 179 176 172 170 174 157 184 168 139 131 152
67 84 120 147 144 147 149 146 144 144 147 150 150 151 153 154 158 157 148 149 152 154 156 154 152 155 160 163 165 164 164 163 162 161 153 149 147 149 143 142 144 139 136 140 144 139 139 141 150 175 187 184 179 184 164 172 185 191 180 164 164 158 172 157 161 183 190 194 188 186 195 187 187 182 180 177 181 177 168 182 166 145 155 161 143
75 60 45 29 64 120 133 142 144 147 151 153 153 151 153 157 160 153 150 152 153 153 151 151 155 157 154 159 163 163 162 155 153 149 142 141 143 139 140 149 152 152 151 150 152 156 156 159 172 182 183 183 196 191 194 179 166 168 131 120 129 149 165 177 167 175 187 193 188 194 198 188 188 186 186 182 178 172 181 174 167 173 167 170 144
81 70 71 80 82 66 33 104 147 148 153 156 155 151 154 157 155 147 150 153 153 152 153 153 153 154 154 149 147 153 146 140 145 146 142 141 138 141 141 153 154 154 152 153 162 164 167 174 168 172 174 177 177 176 162 182 161 160 139 118 103 99 107 118 137 122 139 192 213 211 200 186 191 191 187 174 172 189 187 179 189 186 180 156 174
118 133 142 144 131 109 83 335 197 146 148 159 158 154 156 155 146 148 149 147 146 148 150 151 151 153 154 148 145 139 135 141 143 150 151 154 153 156 156 160 157 157 162 161 163 171 169 161 172 174 181 185 173 163 169 169 167 160 150 146 139 140 134 101 109 121 201 270 250 243 213 168 151 159 159 182 194 206 211 219 237 229 212 200 188
143 137 131 131 137 136 138 168 184 158 147 149 144 150 144 142 145 141 140 142 145 147 146 147 147 146 148 150 149 147 144 147 150 150 153 157 159 158 161 165 168 168 164 167 169 165 167 181 187 183 172 166 169 174 175 172 171 167 173 165 150 142 117 115 109 116 88 52 40 83 138 152 161 163 141 135 146 1 278 262 248 233 224 217 201
124 139 144 141 145 145 145 149 144 142 141 140 139 136 140 141 140 138 135 134 139 144 145 145 142 143 149 152 150 146 148 154 160 160 160 161 167 169 169 175 179 174 169 174 170 178 184 181 177 170 162 159 171 183 190 186 185 181 173 164 158 151 165 166 141 125 98 85 95 106 111 115 119 116 112 54 330 303 242 260 260 247 243 230 221
129 140 151 145 146 141 142 136 135 133 128 121 110 120 139 139 138 140 141 135 131 130 133 135 136 137 141 142 144 156 157 157 161 166 163 161 173 178 179 186 194 176 175 171 183 188 183 179 174 166 159 168 175 201 214 194 189 184 176 170 174 180 178 176 164 132 94 80 103 110 116 126 136 147 163 205 235 245 253 233 237 248 249 247 225
153 152 151 138 134 126 121 121 126 134 132 123 123 127 127 128 132 136 136 131 133 132 130 136 137 139 138 138 145 159 162 161 162 162 145 94 25 57 131 187 189 196 196 191 175 179 180 166 171 187 177 171 187 210 184 178 190 190 189 183 177 165 168 167 153 143 139 132 154 152 163 156 166 170 192 209 218 217 228 235 236 225 225 229 230
151 152 143 139 133 128 128 130 136 136 131 132 133 137 134 135 136 141 142 140 137 133 136 139 142 149 154 152 156 159 166 163 161 151 147 139 127 52 37 33 38 155 175 166 173 156 151 165 168 175 207 218 202 166 166 190 190 190 190 177 164 165 166 174 158 125 125 159 162 167 187 180 194 193 206 218 223 227 235 240 249 246 228 230 231